Home > Weather > Launceston > Past weeks

Flag for Australia Weather for the Past 2 Weeks in Launceston, Tasmania, Australia

Now
46 °F

Clear.


Feels Like: 42 °F
Forecast: 50 / 64 °F
Wind: 8 mph from North

Location: Launceston Airport

Current Time: Feb 15, 2016 at 2:10:11 AM

Latest Report: Feb 15, 2016 at 1:00 AM


Visibility: N/A

Pressure: 29.83 "Hg

Humidity: 76%

Dew point: 39 °F

Location of LauncestonLocation

Historic Weather in Launceston — Graph

°F

Launceston Temperature Yesterday

Maximum temperature yesterday: 72 °F (at 1:00 PM)
Minimum temperature yesterday: 48 °F (at 2:30 AM)
Average temperature yesterday: 60 °F

High & Low Weather Summary for the Past Weeks

 TemperatureHumidityPressure
High84 °F (Feb 2, 3:05 PM)94% (Feb 2, 6:00 AM)30.21 "Hg (Feb 2, 6:00 AM)
Low46 °F (Feb 15, 1:00 AM)21% (Feb 3, 5:30 PM)29.56 "Hg (Feb 2, 5:30 PM)
Average67 °F63%29.90 "Hg
* Reported Jan 31 1:00 AM — Feb 15 1:00 AM, Launceston, Weather by CustomWeather, © 2016

Note: Actual official high and low records may vary slightly from our data, if they occured in-between our weather recording intervals... More about our weather records

Advertising

Launceston Weather History for the Previous 24 Hours

 ConditionsComfort  
Time TempWeatherWind HumidityBarometerVisibility
1:00 AM
Mon, Feb 15
46 °FClear.8 mph76%29.83 "HgN/A
12:00 AM48 °FClear.8 mph71%29.80 "HgN/A
11:00 PM
Sun, Feb 14
55 °FClear.12 mph55%29.80 "HgN/A
10:00 PM55 °FClear.9 mph51%29.80 "HgN/A
9:00 PM59 °FClear.14 mph45%29.77 "HgN/A
8:30 PM59 °FClear.13 mph45%29.77 "HgN/A
8:00 PM61 °FSunny.18 mph39%29.74 "HgN/A
7:30 PM63 °FSunny.15 mph34%29.71 "HgN/A
7:00 PM64 °FSunny.15 mph30%29.71 "HgN/A
6:00 PM66 °FSunny.22 mph32%29.68 "HgN/A
5:30 PM66 °FScattered clouds.20 mph32%29.68 "HgN/A
5:00 PM68 °FScattered clouds.24 mph35%29.68 "HgN/A
4:30 PM70 °FBroken clouds.21 mph38%29.65 "HgN/A
4:00 PM70 °FBroken clouds.21 mph40%29.65 "HgN/A
3:30 PM70 °FPartly sunny.22 mph40%29.65 "HgN/A
3:00 PM70 °FScattered clouds.23 mph40%29.65 "HgN/A
2:30 PM68 °FMostly cloudy.16 mph40%29.65 "HgN/A
2:03 PM68 °FOvercast.21 mph35%29.62 "HgN/A
1:00 PM72 °FPartly sunny.22 mph31%29.62 "HgN/A
12:00 PM70 °FScattered clouds.22 mph33%29.65 "HgN/A
11:00 AM66 °FBroken clouds.20 mph49%29.65 "HgN/A
10:00 AM63 °FBroken clouds.17 mph56%29.65 "HgN/A
9:00 AM63 °FSunny.18 mph59%29.65 "HgN/A
8:30 AM59 °FSunny.15 mph68%29.68 "HgN/A
8:00 AM57 °FBroken clouds.13 mph72%29.65 "HgN/A
7:30 AM55 °FPartly sunny.15 mph77%29.65 "HgN/A
7:00 AM54 °FSunny.12 mph77%29.65 "HgN/A
6:30 AM52 °FPassing clouds.12 mph82%29.65 "HgN/A
6:00 AM52 °FPassing clouds.9 mph82%29.65 "HgN/A
5:30 AM52 °FPassing clouds.12 mph72%29.65 "HgN/A
5:00 AM54 °FPassing clouds.12 mph72%29.65 "HgN/A
4:30 AM50 °FClear.12 mph71%29.65 "HgN/A
4:00 AM48 °FClear.10 mph76%29.65 "HgN/A
3:00 AM50 °FClear.9 mph67%29.65 "HgN/A
2:30 AM48 °FClear.8 mph71%29.65 "HgN/A
2:00 AM50 °FClear.9 mph67%29.65 "HgN/A
Weather by CustomWeather, © 2016

See weather overviewHow to use our weather pages